| time (UTC) | temp F | wind direction | speed knots | gust knots | rain 1hr in | rain 24hr in | rain mn in | humidity % | barometer mb |
| 20260508182029 | 47 | 293 | 3.5 | 8.7 | 0.00 | 0.03 | 0.03 | 70 | 1017.7 |
| 20260508181020 | 47 | 293 | 3.5 | 7.0 | 0.00 | 0.03 | 0.03 | 68 | 1017.6 |
| 20260508180049 | 47 | 293 | 3.5 | 7.8 | 0.00 | 0.03 | 0.03 | 68 | 1017.6 |
| 20260508175046 | 48 | 293 | 3.5 | 7.0 | 0.00 | 0.03 | 0.03 | 68 | 1017.4 |
| 20260508174021 | 48 | 270 | 2.6 | 6.1 | 0.00 | 0.03 | 0.03 | 67 | 1017.3 |
| 20260508173034 | 48 | 293 | 4.3 | 8.7 | 0.00 | 0.03 | 0.03 | 67 | 1017.1 |
| 20260508172020 | 48 | 293 | 5.2 | 11.3 | 0.00 | 0.03 | 0.03 | 66 | 1017.0 |
| 20260508171028 | 48 | 315 | 4.3 | 8.7 | 0.00 | 0.03 | 0.03 | 68 | 1016.9 |
| 20260508170101 | 48 | 293 | 5.2 | 9.6 | 0.00 | 0.03 | 0.03 | 67 | 1016.8 |
| 20260508165021 | 48 | 293 | 3.5 | 7.8 | 0.00 | 0.03 | 0.03 | 67 | 1016.5 |
| 20260508164028 | 48 | 293 | 5.2 | 11.3 | 0.00 | 0.03 | 0.03 | 67 | 1016.4 |
| 20260508163025 | 49 | 293 | 4.3 | 10.4 | 0.00 | 0.03 | 0.03 | 68 | 1016.4 |
| 20260508162041 | 49 | 293 | 3.5 | 8.7 | 0.00 | 0.03 | 0.03 | 69 | 1016.3 |
| 20260508161028 | 48 | 293 | 5.2 | 10.4 | 0.00 | 0.03 | 0.03 | 68 | 1016.2 |
| 20260508160020 | 49 | 270 | 3.5 | 7.8 | 0.00 | 0.03 | 0.03 | 68 | 1016.2 |
| 20260508155020 | 49 | 293 | 4.3 | 10.4 | 0.00 | 0.03 | 0.03 | 67 | 1016.1 |
| 20260508154021 | 50 | 270 | 3.5 | 7.0 | 0.00 | 0.03 | 0.03 | 64 | 1015.7 |
| 20260508153020 | 50 | 270 | 3.5 | 7.8 | 0.00 | 0.03 | 0.03 | 63 | 1015.7 |
| 20260508152040 | 50 | 270 | 4.3 | 13.0 | 0.00 | 0.03 | 0.03 | 62 | 1015.6 |
| 20260508151021 | 50 | 270 | 3.5 | 6.1 | 0.00 | 0.03 | 0.03 | 61 | 1015.5 |
| 20260508150029 | 50 | 270 | 3.5 | 8.7 | 0.00 | 0.03 | 0.03 | 64 | 1015.4 |
| 20260508145029 | 50 | 270 | 5.2 | 10.4 | 0.00 | 0.03 | 0.03 | 65 | 1015.3 |
| 20260508144028 | 50 | 270 | 4.3 | 9.6 | 0.00 | 0.03 | 0.03 | 63 | 1015.2 |
| 20260508143109 | 51 | 270 | 4.3 | 10.4 | 0.00 | 0.03 | 0.03 | 65 | 1015.1 |
| 20260508142020 | 51 | 270 | 5.2 | 12.2 | 0.00 | 0.03 | 0.03 | 65 | 1015.1 |
| 20260508141020 | 50 | 270 | 3.5 | 9.6 | 0.00 | 0.03 | 0.03 | 67 | 1015.0 |
| 20260508140020 | 51 | 270 | 4.3 | 9.6 | 0.00 | 0.03 | 0.03 | 66 | 1014.8 |
| 20260508135020 | 50 | 270 | 2.6 | 6.1 | 0.00 | 0.03 | 0.03 | 66 | 1014.6 |
| 20260508134020 | 50 | 270 | 3.5 | 7.0 | 0.00 | 0.03 | 0.03 | 67 | 1014.5 |
| 20260508133020 | 50 | 270 | 3.5 | 6.1 | 0.00 | 0.03 | 0.03 | 68 | 1014.3 |
| 20260508132020 | 50 | 270 | 3.5 | 8.7 | 0.00 | 0.03 | 0.03 | 68 | 1014.4 |
| 20260508131020 | 50 | 270 | 5.2 | 11.3 | 0.00 | 0.03 | 0.03 | 69 | 1014.2 |
| 20260508130021 | 50 | 270 | 3.5 | 8.7 | 0.00 | 0.03 | 0.03 | 72 | 1014.0 |
| 20260508125030 | 48 | 270 | 3.5 | 6.1 | 0.00 | 0.03 | 0.03 | 74 | 1013.9 |
| 20260508124021 | 48 | 270 | 4.3 | 11.3 | 0.00 | 0.03 | 0.03 | 73 | 1013.9 |
| 20260508123019 | 49 | 270 | 4.3 | 10.4 | 0.00 | 0.03 | 0.03 | 75 | 1013.7 |
| 20260508122049 | 49 | 248 | 4.3 | 10.4 | 0.00 | 0.03 | 0.03 | 74 | 1013.6 |
| 20260508121038 | 49 | 248 | 5.2 | 11.3 | 0.00 | 0.03 | 0.03 | 74 | 1013.4 |
| 20260508120019 | 49 | 270 | 4.3 | 8.7 | 0.00 | 0.03 | 0.03 | 76 | 1013.3 |
| 20260508115037 | 48 | 270 | 2.6 | 7.0 | 0.00 | 0.03 | 0.03 | 77 | 1013.1 |
| 20260508114025 | 48 | 270 | 2.6 | 7.8 | 0.00 | 0.03 | 0.03 | 77 | 1012.9 |
| 20260508113036 | 47 | 270 | 2.6 | 7.8 | 0.00 | 0.03 | 0.03 | 76 | 1012.8 |
| 20260508112021 | 48 | 270 | 4.3 | 10.4 | 0.00 | 0.03 | 0.03 | 73 | 1012.8 |
| 20260508111036 | 49 | 248 | 4.3 | 7.8 | 0.00 | 0.03 | 0.03 | 70 | 1012.4 |
| 20260508110030 | 49 | 225 | 3.5 | 9.6 | 0.00 | 0.03 | 0.03 | 71 | 1012.1 |
| 20260508105029 | 48 | 203 | 1.7 | 7.0 | 0.00 | 0.03 | 0.03 | 73 | 1012.0 |
| 20260508104037 | 48 | 203 | 3.5 | 7.8 | 0.00 | 0.03 | 0.03 | 73 | 1012.0 |
| 20260508103038 | 48 | 248 | 5.2 | 9.6 | 0.00 | 0.03 | 0.03 | 74 | 1011.9 |
| 20260508102019 | 48 | 248 | 4.3 | 9.6 | 0.00 | 0.03 | 0.03 | 73 | 1011.8 |
| 20260508101037 | 49 | 158 | 4.3 | 10.4 | 0.00 | 0.03 | 0.03 | 73 | 1011.4 |
| 20260508100020 | 48 | 225 | 3.5 | 8.7 | 0.01 | 0.03 | 0.03 | 74 | 1011.2 |
| 20260508095019 | 48 | 248 | 1.7 | 4.3 | 0.01 | 0.03 | 0.03 | 75 | 1011.1 |
| 20260508094028 | 48 | 203 | 2.6 | 7.0 | 0.01 | 0.03 | 0.03 | 77 | 1011.0 |
| 20260508093020 | 47 | 158 | 3.5 | 7.8 | 0.01 | 0.03 | 0.03 | 77 | 1011.0 |
| 20260508092028 | 46 | 158 | 2.6 | 7.0 | 0.01 | 0.03 | 0.03 | 77 | 1010.9 |
| 20260508091044 | 46 | 248 | 3.5 | 7.8 | 0.01 | 0.03 | 0.03 | 76 | 1010.9 |
| 20260508090020 | 47 | 270 | 4.3 | 8.7 | 0.00 | 0.02 | 0.02 | 76 | 1010.7 |
| 20260508085028 | 47 | 180 | 5.2 | 10.4 | 0.00 | 0.02 | 0.02 | 74 | 1010.6 |
| 20260508084024 | 48 | 180 | 5.2 | 11.3 | 0.01 | 0.02 | 0.02 | 74 | 1010.5 |
| 20260508083030 | 47 | 203 | 3.5 | 9.6 | 0.01 | 0.02 | 0.02 | 76 | 1010.3 |
| 20260508082027 | 47 | 158 | 6.1 | 16.5 | 0.01 | 0.02 | 0.02 | 77 | 1010.1 |
| 20260508081019 | 46 | 180 | 4.3 | 9.6 | 0.01 | 0.02 | 0.02 | 78 | 1010.1 |
| 20260508080020 | 46 | 158 | 3.5 | 8.7 | 0.01 | 0.02 | 0.02 | 78 | 1010.1 |
| 20260508075019 | 46 | 158 | 3.5 | 8.7 | 0.01 | 0.02 | 0.02 | 77 | 1010.0 |
| 20260508074028 | 46 | 180 | 3.5 | 7.0 | 0.00 | 0.02 | 0.02 | 76 | 1009.7 |
| 20260508073037 | 47 | 158 | 6.1 | 13.0 | 0.00 | 0.02 | 0.02 | 74 | 1009.5 |
| 20260508072036 | 47 | 158 | 4.3 | 14.8 | 0.00 | 0.02 | 0.02 | 74 | 1009.2 |
| 20260508071048 | 46 | 158 | 6.1 | 12.2 | 0.00 | 0.02 | 0.02 | 74 | 1009.1 |
| 20260508070020 | 46 | 180 | 5.2 | 12.2 | 0.01 | 0.02 | 0.02 | 75 | 1008.9 |
| 20260508065033 | 45 | 158 | 2.6 | 6.1 | 0.01 | 0.02 | 0.02 | 76 | 1008.9 |
| 20260508064040 | 45 | 158 | 2.6 | 7.0 | 0.01 | 0.02 | 0.02 | 76 | 1008.8 |
| 20260508063030 | 45 | 180 | 1.7 | 6.1 | 0.01 | 0.02 | 0.02 | 77 | 1008.8 |
| 20260508062030 | 45 | 225 | 3.5 | 8.7 | 0.01 | 0.02 | 0.02 | 77 | 1008.5 |
| 20260508061028 | 45 | 203 | 4.3 | 11.3 | 0.01 | 0.02 | 0.02 | 75 | 1008.4 |
| 20260508060019 | 46 | 180 | 3.5 | 8.7 | 0.00 | 0.01 | 0.01 | 73 | 1008.0 |
| 20260508055020 | 46 | 225 | 6.1 | 13.0 | 0.00 | 0.01 | 0.01 | 72 | 1008.1 |
| 20260508054033 | 47 | 158 | 5.2 | 15.6 | 0.00 | 0.01 | 0.01 | 71 | 1007.9 |
| 20260508053028 | 47 | 158 | 5.2 | 13.0 | 0.00 | 0.01 | 0.01 | 71 | 1008.0 |
| 20260508052019 | 47 | 158 | 2.6 | 9.6 | 0.00 | 0.01 | 0.01 | 70 | 1008.0 |
| 20260508051041 | 47 | 158 | 3.5 | 7.8 | 0.00 | 0.01 | 0.01 | 70 | 1007.8 |
| 20260508050032 | 47 | 158 | 4.3 | 9.6 | 0.00 | 0.01 | 0.01 | 70 | 1007.7 |
| 20260508045040 | 47 | 225 | 5.2 | 12.2 | 0.00 | 0.01 | 0.01 | 70 | 1007.6 |
| 20260508044019 | 47 | 180 | 2.6 | 7.0 | 0.00 | 0.01 | 0.01 | 70 | 1007.5 |
| 20260508043028 | 47 | 158 | 3.5 | 7.0 | 0.00 | 0.01 | 0.01 | 70 | 1007.5 |
| 20260508042030 | 47 | 158 | 4.3 | 9.6 | 0.00 | 0.01 | 0.01 | 70 | 1007.4 |
| 20260508041039 | 47 | 203 | 3.5 | 9.6 | 0.00 | 0.01 | 0.01 | 69 | 1007.4 |
| 20260508040028 | 47 | 180 | 3.5 | 9.6 | 0.00 | 0.01 | 0.01 | 68 | 1007.2 |
| 20260508035020 | 47 | 225 | 3.5 | 12.2 | 0.00 | 0.01 | 0.01 | 67 | 1007.1 |
| 20260508034019 | 48 | 225 | 4.3 | 8.7 | 0.00 | 0.01 | 0.01 | 65 | 1007.1 |
| 20260508033110 | 48 | 180 | 6.1 | 11.3 | 0.00 | 0.01 | 0.01 | 63 | 1007.0 |
| 20260508032031 | 48 | 158 | 7.0 | 15.6 | 0.00 | 0.01 | 0.01 | 62 | 1007.0 |
| 20260508031030 | 48 | 225 | 7.0 | 13.9 | 0.00 | 0.01 | 0.01 | 63 | 1007.0 |
| 20260508030028 | 48 | 180 | 5.2 | 13.0 | 0.00 | 0.01 | 0.01 | 63 | 1006.9 |
| 20260508025019 | 48 | 180 | 5.2 | 15.6 | 0.00 | 0.01 | 0.01 | 63 | 1006.9 |
| 20260508024020 | 48 | 180 | 5.2 | 13.9 | 0.00 | 0.01 | 0.01 | 66 | 1006.9 |
| 20260508023028 | 48 | 203 | 7.0 | 18.2 | 0.00 | 0.01 | 0.01 | 66 | 1006.8 |
| 20260508022032 | 48 | 180 | 6.1 | 12.2 | 0.00 | 0.01 | 0.01 | 66 | 1006.5 |
| 20260508021019 | 48 | 180 | 6.1 | 14.8 | 0.00 | 0.01 | 0.01 | 66 | 1006.7 |
| 20260508020028 | 48 | 180 | 6.1 | 16.5 | 0.00 | 0.01 | 0.01 | 66 | 1006.5 |
| 20260508015028 | 48 | 180 | 6.1 | 12.2 | 0.00 | 0.01 | 0.01 | 67 | 1006.5 |
| 20260508014019 | 48 | 225 | 5.2 | 11.3 | 0.00 | 0.01 | 0.01 | 66 | 1006.6 |
| 20260508013111 | 48 | 203 | 5.2 | 13.9 | 0.00 | 0.01 | 0.01 | 66 | 1006.4 |
| 20260508012029 | 48 | 158 | 4.3 | 13.9 | 0.00 | 0.01 | 0.01 | 67 | 1006.4 |
| 20260508011019 | 48 | 180 | 5.2 | 11.3 | 0.00 | 0.01 | 0.01 | 69 | 1006.4 |
| 20260508010019 | 47 | 158 | 2.6 | 9.6 | 0.00 | 0.01 | 0.01 | 70 | 1006.4 |
| 20260508005019 | 47 | 225 | 3.5 | 8.7 | 0.00 | 0.01 | 0.01 | 70 | 1006.4 |
| 20260508004029 | 48 | 180 | 1.7 | 6.1 | 0.00 | 0.01 | 0.01 | 69 | 1006.3 |
| 20260508003018 | 48 | 158 | 7.8 | 12.2 | 0.00 | 0.01 | 0.01 | 69 | 1006.4 |
| 20260508002020 | 47 | 158 | 3.5 | 7.8 | 0.00 | 0.01 | 0.01 | 70 | 1006.3 |
| 20260508001040 | 47 | 158 | 4.3 | 7.8 | 0.00 | 0.01 | 0.01 | 68 | 1006.3 |
| 20260508000037 | 48 | 180 | 3.5 | 7.0 | 0.01 | 0.01 | 0.01 | 68 | 1006.3 |
| 20260507235028 | 48 | 158 | 4.3 | 10.4 | 0.01 | 0.01 | 0.01 | 69 | 1006.3 |
| 20260507234036 | 47 | 180 | 4.3 | 11.3 | 0.01 | 0.01 | 0.01 | 73 | 1006.3 |
| 20260507233027 | 47 | 135 | 0.9 | 3.5 | 0.01 | 0.01 | 0.01 | 75 | 1006.3 |
| 20260507232040 | 47 | 158 | 3.5 | 7.8 | 0.01 | 0.01 | 0.01 | 75 | 1006.3 |
| 20260507231018 | 47 | 180 | 3.5 | 9.6 | 0.01 | 0.01 | 0.01 | 76 | 1006.3 |
| 20260507230019 | 47 | 158 | 2.6 | 9.6 | 0.00 | 0.00 | 0.00 | 76 | 1006.4 |
| 20260507225019 | 48 | 158 | 1.7 | 6.1 | 0.00 | 0.00 | 0.00 | 75 | 1006.3 |
| 20260507224019 | 48 | 158 | 7.0 | 10.4 | 0.00 | 0.00 | 0.00 | 74 | 1006.2 |
| 20260507223254 | 48 | 158 | 7.0 | 10.4 | 0.00 | 0.00 | 0.00 | 75 | 1006.1 |
| 20260507222019 | 48 | 158 | 7.8 | 11.3 | 0.00 | 0.00 | 0.00 | 75 | 1006.2 |
| 20260507221027 | 48 | 158 | 7.0 | 10.4 | 0.00 | 0.00 | 0.00 | 76 | 1006.0 |
| 20260507220018 | 48 | 158 | 7.0 | 10.4 | 0.00 | 0.00 | 0.00 | 77 | 1006.0 |
| 20260507215030 | 48 | 135 | 3.5 | 6.1 | 0.00 | 0.00 | 0.00 | 77 | 1006.0 |
| 20260507214027 | 49 | 158 | 5.2 | 7.0 | 0.00 | 0.00 | 0.00 | 75 | 1006.0 |
| 20260507213108 | 48 | 158 | 2.6 | 6.1 | 0.00 | 0.00 | 0.00 | 76 | 1006.1 |
| 20260507212030 | 48 | 158 | 2.6 | 5.2 | 0.00 | 0.00 | 0.00 | 77 | 1006.1 |
| 20260507211018 | 48 | 135 | 1.7 | 7.0 | 0.00 | 0.00 | 0.00 | 76 | 1006.1 |
| 20260507210018 | 49 | 0.0 | 2.6 | 0.00 | 0.00 | 0.00 | 75 | 1006.1 | |
| 20260507205019 | 49 | 158 | 6.1 | 9.6 | 0.00 | 0.00 | 0.00 | 75 | 1006.1 |
| 20260507204027 | 49 | 0.0 | 1.7 | 0.00 | 0.00 | 0.00 | 75 | 1006.0 | |
| 20260507203018 | 49 | 0.0 | 1.7 | 0.00 | 0.00 | 0.00 | 75 | 1006.0 | |
| 20260507202200 | 49 | 158 | 3.5 | 5.2 | 0.00 | 0.00 | 0.00 | 75 | 1006.0 |
| 20260507201027 | 49 | 113 | 5.2 | 8.7 | 0.00 | 0.00 | 0.00 | 74 | 1005.8 |
| 20260507200109 | 49 | 113 | 4.3 | 7.8 | 0.00 | 0.00 | 0.00 | 74 | 1005.6 |
| 20260507195028 | 50 | 135 | 5.2 | 8.7 | 0.00 | 0.00 | 0.00 | 72 | 1005.7 |
| 20260507194019 | 50 | 158 | 7.0 | 12.2 | 0.00 | 0.00 | 0.00 | 72 | 1005.7 |
| 20260507193020 | 50 | 158 | 8.7 | 13.0 | 0.00 | 0.00 | 0.00 | 71 | 1005.6 |
| 20260507192030 | 51 | 158 | 10.4 | 15.6 | 0.00 | 0.00 | 0.00 | 69 | 1005.6 |
| 20260507191038 | 51 | 158 | 8.7 | 13.0 | 0.00 | 0.00 | 0.00 | 68 | 1005.4 |
| 20260507190020 | 51 | 158 | 7.8 | 11.3 | 0.00 | 0.00 | 0.00 | 70 | 1005.5 |
| 20260507185048 | 50 | 113 | 4.3 | 8.7 | 0.00 | 0.00 | 0.00 | 73 | 1005.6 |
| 20260507184018 | 50 | 135 | 5.2 | 7.8 | 0.00 | 0.00 | 0.00 | 72 | 1005.6 |
| 20260507183029 | 50 | 158 | 7.8 | 10.4 | 0.00 | 0.00 | 0.00 | 72 | 1005.7 |